DW3921 Weather Reports


Display with metric or nautical units.
time (UTC)temp
F
wind
direction
speed
MPH
gust
MPH
rain 1hr
in
rain 24hr
in
rain mn
in
humidity
%
barometer
mb
20260503214006 49 4 2.0 6.0 0.00 0.00 0.00 93 1034.1
20260503213007 48 33 1.0 7.0 0.00 0.00 0.00 95 1034.4
20260503212006 47 0 0.0 6.0 0.00 0.00 0.00 97 1034.6
20260503210006 45 22 2.0 7.0 0.00 0.00 0.00 99 1035.6
20260503204005 44 25 5.0 7.0 0.00 0.00 0.00 99 1037.3
20260503202016 42 18 1.0 7.0 0.00 0.00 0.00 99 1037.9
20260503201006 42 39 1.0 6.0 0.00 0.00 0.00 99 1037.9
20260503200006 41 35 1.0 6.0 0.00 0.00 0.00 99 1038.1
20260503195006 40 36 2.0 6.0 0.00 0.00 0.00 99 1037.8
20260503194005 39 24 1.0 3.0 0.00 0.00 0.00 99 1037.8
20260503193006 39 29 1.0 6.0 0.00 0.00 0.00 99 1037.6
20260503191006 39 35 1.0 6.0 0.00 0.00 0.00 99 1037.6
20260503190007 39 44 1.0 3.0 0.00 0.00 0.00 99 1037.4
20260503185006 39 42 1.0 3.0 0.00 0.00 0.00 99 1037.1
20260503184006 39 31 2.0 6.0 0.00 0.00 0.00 99 1037.0
20260503182006 39 44 2.0 3.0 0.00 0.00 0.00 99 1037.1
20260503180006 40 45 1.0 3.0 0.00 0.00 0.00 99 1036.7
20260503175006 40 38 2.0 6.0 0.00 0.00 0.00 99 1036.4
20260503173007 40 29 2.0 6.0 0.00 0.00 0.00 99 1036.3
20260503172007 40 33 1.0 3.0 0.00 0.00 0.00 99 1036.2
20260503171006 40 32 2.0 6.0 0.00 0.00 0.00 99 1036.4
20260503151006 42 0 0.0 2.0 0.00 0.00 0.00 99 1035.7
20260503131006 43 0 0.0 2.0 0.00 0.00 0.00 99 1033.7
20260503081006 47 0 0.0 0.0 0.00 0.00 0.00 97 1030.3
20260503072006 49 0 0.0 0.0 0.00 0.00 0.00 96 1030.9
20260503071006 49 0 0.0 0.0 0.00 0.00 0.00 96 1030.5
20260503055006 52 0 0.0 0.0 0.00 0.00 0.00 92 1029.6
20260503054008 53 0 0.0 0.0 0.00 0.00 0.00 90 1029.8
20260503053006 54 0 0.0 0.0 0.00 0.00 0.00 89 1029.8
20260503052007 55 0 0.0 0.0 0.00 0.00 0.00 87 1029.7
20260503050006 57 0 0.0 2.0 0.00 0.00 0.00 84 1029.9
20260503044006 59 0 0.0 2.0 0.00 0.00 0.00 79 1029.8
20260503043007 60 0 0.0 3.0 0.00 0.00 0.00 78 1029.7
20260503042006 60 130 1.0 3.0 0.00 0.00 0.00 78 1029.6
20260503041006 60 0 0.0 6.0 0.00 0.00 0.00 78 1029.9
20260503040007 59 113 1.0 7.0 0.00 0.00 0.00 76 1029.8
20260503034006 60 150 1.0 7.0 0.00 0.00 0.00 79 1029.9
20260503033006 60 125 1.0 7.0 0.00 0.00 0.00 77 1029.7
20260503032006 60 157 2.0 7.0 0.00 0.00 0.00 77 1029.9
20260503031008 61 139 3.0 7.0 0.00 0.00 0.00 75 1030.1
20260503030006 61 158 1.0 9.0 0.00 0.00 0.00 77 1030.0
20260503024006 61 197 2.0 7.0 0.00 0.00 0.00 77 1029.9
20260503023006 61 181 1.0 7.0 0.00 0.00 0.00 77 1029.7
20260503022006 61 219 3.0 7.0 0.00 0.00 0.00 77 1029.4
20260503021006 60 179 2.0 7.0 0.00 0.00 0.00 77 1029.3
20260503020006 61 197 2.0 9.0 0.00 0.00 0.00 76 1029.4
20260503015005 61 177 1.0 9.0 0.00 0.00 0.00 75 1029.3
20260503013006 61 179 3.0 7.0 0.00 0.00 0.00 75 1029.1
20260503012006 62 191 3.0 7.0 0.00 0.00 0.00 74 1029.0
20260503011005 62 183 2.0 6.0 0.00 0.00 0.00 74 1029.1
20260503005005 62 182 3.0 6.0 0.00 0.00 0.00 74 1029.0
20260503004006 63 206 2.0 6.0 0.00 0.00 0.00 71 1029.0
20260503003006 62 171 1.0 7.0 0.00 0.00 0.00 72 1028.9
20260503002006 64 225 2.0 6.0 0.00 0.00 0.00 73 1029.0
20260503001006 65 301 2.0 6.0 0.00 0.00 0.00 65 1029.0
20260503000006 64 0 0.0 6.0 0.00 0.00 0.00 69 1029.7
20260502235005 62 9 2.0 7.0 0.00 0.00 0.00 69 1030.0
20260502234006 62 330 2.0 6.0 0.00 0.00 0.00 70 1030.5
20260502233009 62 33 1.0 6.0 0.00 0.00 0.00 70 1030.8
20260502232007 62 39 2.0 6.0 0.00 0.00 0.00 72 1030.9
20260502231006 61 0 0.0 3.0 0.00 0.00 0.00 75 1030.8
20260502230007 60 21 2.0 3.0 0.00 0.00 0.00 78 1030.2
20260502225006 59 37 1.0 6.0 0.00 0.00 0.00 77 1029.8
20260502221005 56 29 1.0 6.0 0.00 0.00 0.00 84 1029.3